Simultaneous Nadir Overpasses (SNOs) Predictions

Prediction of SNOs between NOAA-19 and METOP-C Satellite Orbit:

Table of predicted SNOs for the next 14.0 days since TLE Epoch: 10/19/2024
Index Date (NOAA-19) Time (NOAA-19) Lat,Lon (NOAA-19) SZA (NOAA-19 ) Date (METOP-C) Time (METOP-C) Lat,Lon (METOP-C) SZA (METOP-C ) Distance(km) Time Diff (sec)
1 10/23/2024 06:33:54 48.84, 54.11 63.75 10/23/2024 06:35:01 49.32, 54.24 64.06 53.72 67
2 10/23/2024 07:24:58 -48.60,-138.74 116.44 10/23/2024 07:25:58 -48.57,-138.77 116.53 3.15 60
3 10/23/2024 08:14:55 52.05, 30.13 66.34 10/23/2024 08:15:35 52.06, 30.15 66.30 1.52 40
4 10/23/2024 09:04:29 -56.91,-159.91 109.66 10/23/2024 09:04:54 -56.89,-159.93 109.70 2.48 25
5 10/23/2024 09:54:35 59.78, 9.27 72.76 10/23/2024 09:54:41 59.78, 9.27 72.76 0.05 6
6 10/23/2024 10:44:44 -62.62, 178.76 104.81 10/23/2024 10:44:34 -62.59, 178.73 104.82 2.81 10
7 10/23/2024 11:35:19 63.84, -12.88 76.26 10/23/2024 11:34:50 63.85, -12.85 76.28 2.10 29
8 10/23/2024 12:25:40 -65.97, 156.53 101.87 10/23/2024 12:24:54 -65.99, 156.56 101.83 2.81 46



Historial Predications of SNOs between NOAA-19 and METOP-C
